Regional Weather Roundup
Issued by NWS Mobile, AL

Home | Current Version | Previous Version | Text Only | Print | Product List | Glossary On
Versions: 1 2 3 4 5 6 7 8 9 10 11 12 13 14 15 16 17 18 19 20 21 22 23 24 25 26 27 28 29 30 31 32 33 34 35 36 37 38 39 40 41 42 43 44 45 46 47 48 49 50
000
ASUS44 KMOB 251110
RWRMOB
REGIONAL WEATHER ROUNDUP
NATIONAL WEATHER SERVICE MOBILE AL
600 AM CDT FRI JUL 25 2014

NOTE: "FAIR" INDICATES FEW OR NO CLOUDS BELOW 12,000 FEET WITH NO
      SIGNIFICANT WEATHER AND/OR OBSTRUCTIONS TO VISIBILITY.

  * THESE STATIONS ARE PART OF THE UNIVERSITY OF SOUTH ALABAMA
    MESONET AND ARE NOT UNDER NWS OR FAA QUALITY CONTROL.

ALZ061>064-251200-
COASTAL ALABAMA

CITY           SKY/WX    TMP DP  RH WIND       PRES   REMARKS
MOBILE REG APT PTCLDY    72  72 100 CALM      30.01R
BROOKLEY FIELD PTCLDY    74  74 100 CALM      30.01R
USA CAMPUS*      N/A     72  72 100 CALM      30.00R
DOG RIVER*       N/A     75  73  94 CALM      30.00R


CITY           SKY/WX    TMP DP  RH WIND       PRES   REMARKS
MOUNT VERNON*    N/A     66  66 100 CALM      30.01R
SARALAND*      NOT AVBL
BAY MINETTE*   NOT AVBL
LOXLEY*          N/A    N/A N/A N/A CALM      30.00R
ROBERTSDALE*     N/A    N/A N/A N/A S2        30.00R
FAIRHOPE*        N/A     73  73 100 CALM      30.00R
ELBERTA*       NOT AVBL
FOLEY*         NOT AVBL
GRAND BAY*       N/A     72  72 100 CALM      29.99R
DAUPHIN ISLND* NOT AVBL
BON SCOUR NWR* NOT AVBL
GULF SHORES    PTCLDY    75  74  96 CALM      29.99R

$$

ALZ051>060-251200-
INTERIOR SOUTHWEST AND SOUTH CENTRAL ALABAMA

CITY           SKY/WX    TMP DP  RH WIND       PRES   REMARKS
GREENVILLE     CLEAR     74  71  91 CALM      30.01
EVERGREEN      CLEAR     72  70  93 CALM      30.02R
CASTLEBERRY*   NOT AVBL
ATMORE*          N/A     72  72 100 CALM      30.02S
DIXIE*         NOT AVBL
ANDALUSIA/OPP  CLEAR     75  70  84 CALM      30.02R
ANDALUSIA*     NOT AVBL
FLORALA APT    CLEAR     72  70  93 CALM      30.04R
FLORALA*         N/A     72  70  94 CALM      30.00R

$$

FLZ001>006-251200-
WESTERN FLORIDA PANHANDLE

CITY           SKY/WX    TMP DP  RH WIND       PRES   REMARKS
PENSACOLA      PTCLDY    74  73  97 N5        30.00R
NAS PENSACOLA  MOCLDY    75  74  96 VRB3      30.00R
MILTON         MOCLDY    74  71  91 CALM      30.01R
WHTNG S FIELD  PTCLDY    75  72  90 CALM      30.01R


CITY           SKY/WX    TMP DP  RH WIND       PRES   REMARKS
WALNUT HILL*   NOT AVBL
JAY*           NOT AVBL
DUKE FIELD     PTCLDY    73  73 100 N2        30.01R
CRESTVIEW      CLEAR     70  69  97 CALM      30.02R
VALPARAISO     PTCLDY    77  75  94 NW2       30.00R
DESTIN         CLEAR     82  76  81 SW3       30.00R

$$

MSZ076-079-251200-
INTERIOR SOUTHEAST MISSISSIPPI

CITY           SKY/WX    TMP DP  RH WIND       PRES   REMARKS
LEAKESVILLE*   NOT AVBL
AGRICOLA*      NOT AVBL

$$

MARINE OBSERVATIONS

STATION/POSITION TIME  TEMP    WIND        PRES    WAVE
                       AIR SEA DIR/SP/G            HT/PER
                 (UTC) (F)     (DEG/KT/KT) (MB)    (FT/S)
PASCAGOULA       1100   79      10/  1/  2 1015.4R
PETIT BOIS ISLND 1100   82     300/  6/  7 1016.0R
GRAND BAY        1000   79     310/  3     1016.0S
KATRINA CUT      1000   81     210/  6     1015.6S
CEDAR POINT      1000   80     220/  8     1015.2S
E DAUPHIN ISLAND 1000   80     240/  4/  5 1015.0R
MIDDLE BAY LIGHT 1000   81     230/  9     1015.2R
USCG MOBILE BAY  1100   76 83  350/  2/  3 1014.8R
STATE DOCKS      1100   76 83              1015.6R
MEAHER PARK      1000   77     360/  3     1015.6R
WEEKS BAY        1000   70                   N/A
12 S ORANGE BCH  1100   80 83  230/ 14/ 16 1015.3R   2/ 4
PENSACOLA BAY    1100   81 83  320/  3/  4 1015.9R
64 S DAUPHIN ISL 1038   81 84  290/ 17/ 19 1016.0R
67 S FORT MORGAN 0900   82                 1015.6

$$

SELECTED LOCATIONS ACROSS THE REGION

CITY           SKY/WX    TMP DP  RH WIND       PRES   REMARKS
NEW ORLEANS    MOCLDY    77  74  90 SW3       30.01R
GULFPORT       CLEAR     78  74  87 SW3       29.98R
PASCAGOULA AP  PTCLDY    72  71  97 CALM      30.00R
PASCAGOULA*      N/A     75  75 100 CALM      29.99R
HATTIESBURG    CLEAR     74  73  97 CALM      30.01R FOG
LAUREL         CLEAR     73  70  88 CALM      30.02R
MERIDIAN       CLEAR     69  68  96 CALM      30.02R
JACKSON        CLEAR     69  67  93 CALM      30.02R
MONTGOMERY     CLEAR     75  72  90 MISG      30.00R FOG
TROY           CLEAR     74  72  93 CALM      30.03R
KINSTON*       NOT AVBL
GENEVA*          N/A     68  66  94 CALM      30.04R
ASHFORD*       NOT AVBL
DOTHAN         CLEAR     74  72  93 CALM      30.06R
PANAMA CITY    PTCLDY    76  73  91 CALM      30.01R

$$



USA.gov is the U.S. government's official web portal to all federal, state and local government web resources and services.